Ely, MN

5:49 AM CDT on July 30, 2016 (GMT -0500)
Ely Municipal

Weather History for KELO - March, 2014

Change the Weather History Date:

Wednesday, March 12, 2014

  Actual Average Record
Temperature  
Mean Temperature 8 °F -  
Max Temperature 21 °F 30 °F 60 °F (2016)
Min Temperature -4 °F 7 °F -20 °F (2009)
Degree Days  
Heating Degree Days 56    
Moisture  
Dew Point -7 °F    
Average Humidity 51    
Maximum Humidity 79    
Minimum Humidity 26    
Precipitation  
Precipitation 0.00 in - - ()
Sea Level Pressure  
Sea Level Pressure 30.05 in    
Wind  
Wind Speed 4 mph (South)    
Max Wind Speed 12 mph    
Max Gust Speed -    
Visibility 10 miles    
Events      
Averages and records for this station are not official NWS values.
T = Trace of Precipitation, MM = Missing Value Source: NWS Daily Summary

Daily Weather History Graph

Daily Weather History Graph

Search for Another Location

Airport or City:

Trip Planner

Search our weather history database for the weather conditions in past years. The results will help you decide how hot, cold, wet, or windy it might be!

Date:

Astronomy

Mar. 12, 2014 Rise Set
Actual Time 7:26 AM CDT 7:08 PM CDT
Civil Twilight 6:55 AM CDT 7:39 PM CDT
Nautical Twilight 6:19 AM CDT 8:15 PM CDT
Astronomical Twilight 5:43 AM CDT 8:51 PM CDT
Moon 3:27 PM CDT (3/12) 5:11 AM CDT (3/12)
Length of Visible Light 12h 43m
Length of Day
11h 42m
Waxing Gibbous, 85% of the Moon is Illuminated
Mar 12
Waxing Gibbous
Mar 16
Full
Mar 23
Last Quarter
Mar 30
New
Apr 7
First Quarter

Hourly Weather History & Observations

Time (CDT) Temp. Windchill Dew Point Humidity Pressure Visibility Wind Dir Wind Speed Gust Speed Precip Events Conditions
12:13 AM 12.2 °F 0.7 °F -0.4 °F 57% 30.05 in 10.0 mi NNE 8.1 mph - N/A   Clear
12:32 AM 10.4 °F 0.8 °F -2.2 °F 57% 30.06 in 10.0 mi NNE 5.8 mph - N/A   Clear
12:53 AM 10.4 °F 0.8 °F -2.2 °F 57% 30.06 in 10.0 mi NE 5.8 mph - N/A   Clear
1:13 AM 10.4 °F 4.0 °F -2.2 °F 57% 30.06 in 10.0 mi NNE 3.5 mph - N/A   Clear
1:32 AM 8.6 °F 2.0 °F -4.0 °F 57% 30.06 in 10.0 mi NNE 3.5 mph - N/A   Clear
1:53 AM 8.6 °F -1.3 °F -5.8 °F 52% 30.07 in 10.0 mi NE 5.8 mph - N/A   Clear
2:13 AM 8.6 °F -2.6 °F -5.8 °F 52% 30.07 in 10.0 mi NNE 6.9 mph - N/A   Clear
2:32 AM 6.8 °F -2.0 °F -5.8 °F 56% 30.08 in 10.0 mi NNE 4.6 mph - N/A   Clear
2:53 AM 6.8 °F -2.0 °F -5.8 °F 56% 30.08 in 10.0 mi NE 4.6 mph - N/A   Clear
3:13 AM 5.0 °F - -5.8 °F 61% 30.08 in 10.0 mi Calm Calm - N/A   Clear
3:32 AM 3.2 °F -6.2 °F -7.6 °F 61% 30.08 in 10.0 mi NE 4.6 mph - N/A   Clear
3:53 AM 3.2 °F -6.2 °F -7.6 °F 61% 30.08 in 10.0 mi NE 4.6 mph - N/A   Clear
4:13 AM 3.2 °F - -7.6 °F 61% 30.08 in 10.0 mi Calm Calm - N/A   Clear
4:32 AM 1.4 °F - -7.6 °F 66% 30.08 in 10.0 mi Calm Calm - N/A   Clear
4:53 AM 1.4 °F - -7.6 °F 66% 30.09 in 10.0 mi Calm Calm - N/A   Clear
5:13 AM -0.4 °F -8.3 °F -7.6 °F 72% 30.09 in 10.0 mi NNE 3.5 mph - N/A   Clear
5:33 AM -0.4 °F - -9.4 °F 66% 30.10 in 10.0 mi Calm Calm - N/A   Clear
5:53 AM -0.4 °F - -9.4 °F 66% 30.10 in 10.0 mi Calm Calm - N/A   Clear
6:13 AM -2.2 °F - -9.4 °F 71% 30.10 in 10.0 mi Calm Calm - N/A   Clear
6:32 AM -2.2 °F - -9.4 °F 71% 30.10 in 10.0 mi Calm Calm - N/A   Clear
6:53 AM -4.0 °F -12.4 °F -9.4 °F 78% 30.10 in 10.0 mi NNE 3.5 mph - N/A   Clear
7:13 AM -2.2 °F - -9.4 °F 71% 30.10 in 10.0 mi Calm Calm - N/A   Clear
7:32 AM -4.0 °F -12.4 °F -9.4 °F 78% 30.11 in 10.0 mi NE 3.5 mph - N/A   Clear
7:53 AM -4.0 °F - -11.2 °F 71% 30.12 in 10.0 mi Calm Calm - N/A   Clear
8:13 AM -4.0 °F - -9.4 °F 78% 30.12 in 10.0 mi Calm Calm - N/A   Clear
8:32 AM -2.2 °F - -9.4 °F 71% 30.13 in 10.0 mi Calm Calm - N/A   Clear
8:53 AM -0.4 °F - -9.4 °F 66% 30.13 in 10.0 mi Calm Calm - N/A   Clear
9:12 AM 1.4 °F -6.2 °F -9.4 °F 61% 30.13 in 10.0 mi ENE 3.5 mph - N/A   Clear
9:33 AM 1.4 °F -8.3 °F -9.4 °F 61% 30.13 in 10.0 mi East 4.6 mph - N/A   Clear
9:53 AM 3.2 °F -6.2 °F -9.4 °F 56% 30.13 in 10.0 mi East 4.6 mph - N/A   Clear
10:12 AM 3.2 °F - -9.4 °F 56% 30.13 in 10.0 mi Calm Calm - N/A   Clear
10:33 AM 6.8 °F - -7.6 °F 52% 30.13 in 10.0 mi Calm Calm - N/A   Clear
10:53 AM 6.8 °F -0.1 °F -7.6 °F 52% 30.12 in 10.0 mi SSE 3.5 mph - N/A   Clear
11:13 AM 8.6 °F - -9.4 °F 44% 30.11 in 10.0 mi Calm Calm - N/A   Clear
11:33 AM 10.4 °F - -9.4 °F 41% 30.10 in 10.0 mi Calm Calm - N/A   Clear
11:52 AM 10.4 °F - -9.4 °F 41% 30.10 in 10.0 mi Calm Calm - N/A   Clear
12:13 PM 12.2 °F - -9.4 °F 38% 30.09 in 10.0 mi Calm Calm - N/A   Clear
12:33 PM 12.2 °F 6.1 °F -11.2 °F 34% 30.09 in 10.0 mi ESE 3.5 mph - N/A   Clear
12:52 PM 14.0 °F - -14.8 °F 27% 30.09 in 10.0 mi Calm Calm - N/A   Clear
1:13 PM 14.0 °F - -11.2 °F 32% 30.08 in 10.0 mi Calm Calm - N/A   Clear
1:33 PM 15.8 °F - -9.4 °F 32% 30.07 in 10.0 mi Calm Calm - N/A   Clear
1:52 PM 15.8 °F - -11.2 °F 30% 30.06 in 10.0 mi Calm Calm - N/A   Clear
2:13 PM 17.6 °F 10.7 °F -11.2 °F 27% 30.05 in 10.0 mi WNW 4.6 mph - N/A   Clear
2:33 PM 17.6 °F 12.3 °F -11.2 °F 27% 30.04 in 10.0 mi WSW 3.5 mph - N/A   Clear
2:52 PM 17.6 °F 12.3 °F -9.4 °F 30% 30.04 in 10.0 mi NW 3.5 mph - N/A   Clear
3:13 PM 19.4 °F 11.5 °F -7.6 °F 30% 30.02 in 10.0 mi SSW 5.8 mph - N/A   Clear
3:33 PM 19.4 °F 12.8 °F -9.4 °F 28% 30.02 in 10.0 mi SSW 4.6 mph - N/A   Clear
3:52 PM 19.4 °F 8.6 °F -7.6 °F 30% 30.01 in 10.0 mi WSW 9.2 mph - N/A   Clear
4:13 PM 19.4 °F 9.5 °F -9.4 °F 28% 30.00 in 10.0 mi SSW 8.1 mph - N/A   Clear
4:33 PM 21.2 °F 12.6 °F -7.6 °F 28% 29.99 in 10.0 mi WSW 6.9 mph - N/A   Clear
4:53 PM 21.2 °F 13.6 °F -9.4 °F 26% 29.99 in 10.0 mi WSW 5.8 mph - N/A   Clear
5:12 PM 21.2 °F 11.7 °F -7.6 °F 28% 29.99 in 10.0 mi SW 8.1 mph - N/A   Clear
5:33 PM 21.2 °F 13.6 °F -5.8 °F 30% 29.99 in 10.0 mi SW 5.8 mph - N/A   Clear
5:53 PM 21.2 °F 12.6 °F -7.6 °F 28% 29.98 in 10.0 mi SW 6.9 mph - N/A   Clear
6:12 PM 21.2 °F 11.7 °F -7.6 °F 28% 29.98 in 10.0 mi WSW 8.1 mph - N/A   Clear
6:33 PM 19.4 °F 11.5 °F -7.6 °F 30% 29.98 in 10.0 mi WSW 5.8 mph - N/A   Clear
6:52 PM 19.4 °F 11.5 °F -7.6 °F 30% 29.98 in 10.0 mi WSW 5.8 mph - N/A   Clear
7:13 PM 17.6 °F 12.3 °F -7.6 °F 32% 29.98 in 10.0 mi SW 3.5 mph - N/A   Clear
7:33 PM 17.6 °F 10.7 °F -7.6 °F 32% 29.98 in 10.0 mi SSW 4.6 mph - N/A   Clear
7:52 PM 15.8 °F - -7.6 °F 35% 29.99 in 10.0 mi Calm Calm - N/A   Clear
8:13 PM 15.8 °F 10.2 °F -7.6 °F 35% 29.98 in 10.0 mi South 3.5 mph - N/A   Clear
8:32 PM 15.8 °F 8.6 °F -5.8 °F 38% 29.97 in 10.0 mi South 4.6 mph - N/A   Scattered Clouds
8:53 PM 12.2 °F -1.8 °F 1.4 °F 62% 29.96 in 10.0 mi SSE 11.5 mph - N/A   Clear
9:13 PM 10.4 °F -3.3 °F 3.2 °F 73% 29.96 in 10.0 mi SSE 10.4 mph - N/A   Clear
9:32 PM 10.4 °F -1.5 °F 3.2 °F 73% 29.95 in 10.0 mi South 8.1 mph - N/A   Clear
9:53 PM 10.4 °F 0.8 °F 3.2 °F 73% 29.95 in 10.0 mi South 5.8 mph - N/A   Clear
10:13 PM 8.6 °F -3.7 °F 3.2 °F 79% 29.94 in 10.0 mi South 8.1 mph - N/A   Clear
10:32 PM 8.6 °F -1.3 °F 1.4 °F 73% 29.94 in 10.0 mi South 5.8 mph - N/A   Clear
10:53 PM 8.6 °F -1.3 °F 1.4 °F 73% 29.92 in 10.0 mi South 5.8 mph - N/A   Clear
11:13 PM 8.6 °F -1.3 °F 1.4 °F 73% 29.92 in 10.0 mi South 5.8 mph - N/A   Clear
11:32 PM 8.6 °F -1.3 °F -0.4 °F 67% 29.91 in 10.0 mi South 5.8 mph - N/A   Clear
11:53 PM 8.6 °F -2.6 °F -0.4 °F 67% 29.90 in 10.0 mi South 6.9 mph - N/A   Clear